FW9359 Weather Reports


Display with metric or nautical units.
time (UTC)temp
F
wind
direction
speed
MPH
gust
MPH
rain 1hr
in
rain 24hr
in
rain mn
in
humidity
%
barometer
mb
20260509123710 57 187 0.0 1.0 0.00 0.00 0.00 81 1008.4
20260509123207 56 203 2.0 5.0 0.00 0.00 0.00 81 1008.3
20260509122702 56 149 3.0 5.0 0.00 0.00 0.00 82 1008.5
20260509122200 56 208 3.0 3.0 0.00 0.00 0.00 82 1008.3
20260509121656 55 198 3.0 3.0 0.00 0.00 0.00 83 1008.4
20260509121154 55 174 3.0 3.0 0.00 0.00 0.00 83 1008.1
20260509120652 55 178 3.0 3.0 0.00 0.00 0.00 84 1008.5
20260509120149 55 173 1.0 1.0 0.00 0.00 0.00 85 1008.3
20260509115647 54 194 2.0 3.0 0.00 0.00 0.00 86 1008.3
20260509115144 54 192 2.0 2.0 0.00 0.00 0.00 87 1008.1
20260509114642 54 184 2.0 2.0 0.00 0.00 0.00 87 1008.2
20260509114141 54 152 2.0 2.0 0.00 0.00 0.00 87 1008.3
20260509113639 54 208 1.0 1.0 0.00 0.00 0.00 87 1008.2
20260509113136 54 204 2.0 2.0 0.00 0.00 0.00 87 1008.0
20260509112632 54 198 3.0 3.0 0.00 0.00 0.00 87 1007.9
20260509112130 54 191 3.0 5.0 0.00 0.00 0.00 87 1008.0
20260509111627 54 241 1.0 2.0 0.00 0.00 0.00 87 1007.9
20260509111123 54 190 1.0 1.0 0.00 0.00 0.00 87 1008.2
20260509110621 54 225 1.0 1.0 0.00 0.00 0.00 87 1008.0
20260509110118 54 189 1.0 2.0 0.00 0.00 0.00 86 1007.7
20260509105616 54 228 2.0 3.0 0.00 0.00 0.00 86 1007.6
20260509105113 54 172 3.0 3.0 0.00 0.00 0.00 86 1007.7
20260509104610 54 209 1.0 1.0 0.00 0.00 0.00 86 1007.8
20260509104108 54 201 1.0 1.0 0.00 0.00 0.00 85 1007.8
20260509103604 54 184 1.0 2.0 0.00 0.00 0.00 85 1007.7
20260509103102 54 175 5.0 7.0 0.00 0.00 0.00 86 1007.6
20260509102559 54 188 1.0 1.0 0.00 0.00 0.00 86 1007.6
20260509102056 54 183 3.0 5.0 0.00 0.00 0.00 85 1007.8
20260509101552 54 191 2.0 2.0 0.00 0.00 0.00 86 1007.7
20260509101049 54 176 2.0 3.0 0.00 0.00 0.00 86 1007.6
20260509100546 54 195 3.0 3.0 0.00 0.00 0.00 86 1007.8
20260509100044 54 184 5.0 8.0 0.00 0.00 0.00 86 1007.8
20260509095540 54 210 5.0 6.0 0.00 0.00 0.00 86 1008.0
20260509095038 54 189 3.0 3.0 0.00 0.00 0.00 87 1008.0
20260509094534 54 186 1.0 2.0 0.00 0.00 0.00 87 1008.2
20260509094031 54 211 1.0 1.0 0.00 0.00 0.00 87 1008.1
20260509093530 54 185 3.0 6.0 0.00 0.00 0.00 87 1008.4
20260509093027 54 214 3.0 3.0 0.00 0.00 0.00 87 1008.4
20260509092525 54 184 3.0 3.0 0.00 0.00 0.00 87 1008.5
20260509092023 54 201 1.0 2.0 0.00 0.00 0.00 87 1008.6
20260509091520 54 215 0.0 1.0 0.00 0.00 0.00 87 1008.3
20260509091016 54 157 1.0 2.0 0.00 0.00 0.00 87 1008.3
20260509090514 54 185 3.0 3.0 0.00 0.00 0.00 87 1008.3
20260509090012 54 174 2.0 2.0 0.00 0.00 0.00 87 1008.5
20260509085508 54 179 1.0 1.0 0.00 0.00 0.00 87 1008.6
20260509085004 54 189 3.0 5.0 0.00 0.00 0.00 87 1008.6
20260509084502 54 159 2.0 2.0 0.00 0.00 0.00 87 1008.6
20260509083959 54 163 1.0 1.0 0.00 0.00 0.00 87 1008.8
20260509083456 54 196 1.0 1.0 0.00 0.00 0.00 87 1008.5
20260509082952 53 183 1.0 1.0 0.00 0.00 0.00 86 1008.6
20260509082450 54 196 1.0 1.0 0.00 0.00 0.00 86 1008.5
20260509081947 54 206 2.0 2.0 0.00 0.00 0.00 86 1008.5
20260509081444 54 184 1.0 1.0 0.00 0.00 0.00 86 1008.3
20260509080941 54 212 0.0 1.0 0.00 0.00 0.00 85 1008.5
20260509080439 54 229 0.0 1.0 0.00 0.00 0.00 85 1008.6
20260509075937 54 195 2.0 2.0 0.00 0.00 0.00 85 1008.6
20260509075434 54 180 2.0 2.0 0.00 0.00 0.00 85 1008.6
20260509074932 54 180 2.0 2.0 0.00 0.00 0.00 84 1008.6
20260509074429 54 214 2.0 2.0 0.00 0.00 0.00 84 1008.7
20260509073925 54 151 3.0 3.0 0.00 0.00 0.00 84 1008.5
20260509073422 54 213 5.0 7.0 0.00 0.00 0.00 84 1008.9
20260509072918 54 184 2.0 3.0 0.00 0.00 0.00 83 1008.9
20260509072415 54 201 1.0 1.0 0.00 0.00 0.00 83 1009.1
20260509071911 55 160 1.0 2.0 0.00 0.00 0.00 83 1009.2
20260509071409 55 179 2.0 3.0 0.00 0.00 0.00 83 1009.0
20260509070906 55 177 1.0 2.0 0.00 0.00 0.00 82 1009.1
20260509070402 55 192 3.0 5.0 0.00 0.00 0.00 83 1009.2
20260509065858 55 136 1.0 1.0 0.00 0.00 0.00 83 1009.3
20260509065355 55 205 2.0 2.0 0.00 0.00 0.00 83 1009.3
20260509064851 55 198 2.0 3.0 0.00 0.00 0.00 83 1009.4
20260509064349 55 144 3.0 5.0 0.00 0.00 0.00 83 1009.4
20260509063846 55 197 3.0 3.0 0.00 0.00 0.00 83 1009.6
20260509063342 55 170 3.0 5.0 0.00 0.00 0.00 83 1009.6
20260509062839 55 172 2.0 2.0 0.00 0.00 0.00 83 1009.4
20260509062336 56 183 2.0 2.0 0.00 0.00 0.00 83 1009.5
20260509061833 56 202 1.0 2.0 0.00 0.00 0.00 82 1009.5
20260509061332 56 179 3.0 3.0 0.00 0.00 0.00 82 1009.5
20260509060828 56 179 2.0 6.0 0.00 0.00 0.00 82 1009.7
20260509060325 56 178 3.0 3.0 0.00 0.00 0.00 82 1009.7
20260509055820 56 212 1.0 1.0 0.00 0.00 0.00 82 1009.8
20260509055316 56 200 4.0 6.0 0.00 0.00 0.00 82 1009.9
20260509054813 56 165 3.0 5.0 0.00 0.00 0.00 81 1009.9
20260509054310 56 149 1.0 2.0 0.00 0.00 0.00 81 1009.7
20260509053808 56 162 1.0 2.0 0.00 0.00 0.00 81 1009.9
20260509053305 57 178 3.0 5.0 0.00 0.00 0.00 80 1010.0
20260509052803 57 202 2.0 3.0 0.00 0.00 0.00 80 1009.7
20260509052301 57 210 3.0 5.0 0.00 0.00 0.00 80 1009.9
20260509051758 57 142 1.0 1.0 0.00 0.00 0.00 79 1009.7
20260509051256 57 187 3.0 3.0 0.00 0.00 0.00 78 1009.7
20260509050752 57 219 3.0 3.0 0.00 0.00 0.00 78 1009.7
20260509050249 57 184 3.0 5.0 0.00 0.00 0.00 77 1009.6
20260509045746 57 211 4.0 6.0 0.00 0.00 0.00 77 1009.7
20260509045243 57 195 5.0 6.0 0.00 0.00 0.00 76 1009.8
20260509044740 57 237 1.0 1.0 0.00 0.00 0.00 76 1009.8
20260509044238 57 204 2.0 2.0 0.00 0.00 0.00 76 1009.9
20260509043734 57 212 2.0 2.0 0.00 0.00 0.00 75 1010.1
20260509043230 57 184 2.0 2.0 0.00 0.00 0.00 75 1010.0
20260509042726 57 180 1.0 2.0 0.00 0.00 0.00 75 1010.0
20260509042223 57 183 3.0 3.0 0.00 0.00 0.00 74 1010.0
20260509041720 57 167 4.0 6.0 0.00 0.00 0.00 74 1010.1
20260509041217 57 198 2.0 3.0 0.00 0.00 0.00 74 1010.0
20260509040715 57 195 5.0 6.0 0.00 0.00 0.00 73 1010.0
20260509040212 57 173 0.0 1.0 0.00 0.00 0.00 73 1009.9
20260509035708 57 203 3.0 5.0 0.00 0.00 0.00 73 1010.0
20260509035205 57 193 0.0 0.0 0.00 0.00 0.00 73 1010.0
20260509034703 57 202 3.0 3.0 0.00 0.00 0.00 73 1010.0
20260509034200 56 201 1.0 1.0 0.00 0.00 0.00 73 1010.2
20260509033657 55 185 0.0 1.0 0.00 0.00 0.00 73 1010.1
20260509033154 55 187 3.0 3.0 0.00 0.00 0.00 73 1010.0
20260509032651 55 183 1.0 1.0 0.00 0.00 0.00 74 1010.2
20260509032148 54 177 2.0 2.0 0.00 0.00 0.00 75 1010.2
20260509031645 53 176 0.0 1.0 0.00 0.00 0.00 76 1010.2
20260509031143 52 188 0.0 1.0 0.00 0.00 0.00 78 1010.1
20260509030641 52 92 0.0 0.0 0.00 0.00 0.00 78 1010.2
20260509030138 52 92 0.0 0.0 0.00 0.00 0.00 78 1010.3
20260509025634 52 92 0.0 0.0 0.00 0.00 0.00 77 1010.2
20260509025130 52 92 0.0 0.0 0.00 0.00 0.00 77 1010.4
20260509024625 52 92 0.0 0.0 0.00 0.00 0.00 76 1010.5
20260509024121 52 92 0.0 0.0 0.00 0.00 0.00 75 1010.3
20260509023620 52 92 0.0 0.0 0.00 0.00 0.00 75 1010.4
20260509023116 53 92 0.0 0.0 0.00 0.00 0.00 74 1010.4
20260509022612 53 92 0.0 0.0 0.00 0.00 0.00 74 1010.6
20260509022111 53 92 0.0 0.0 0.00 0.00 0.00 74 1010.7
20260509021607 53 92 0.0 0.0 0.00 0.00 0.00 74 1010.8
20260509021104 53 92 0.0 0.0 0.00 0.00 0.00 73 1010.7
20260509020603 53 92 0.0 0.0 0.00 0.00 0.00 73 1010.8
20260509020059 53 92 0.0 0.0 0.00 0.00 0.00 73 1010.6
20260509015558 53 172 0.0 1.0 0.00 0.00 0.00 72 1010.7
20260509015055 53 175 0.0 0.0 0.00 0.00 0.00 72 1010.7
20260509014551 53 155 0.0 0.0 0.00 0.00 0.00 72 1010.6
20260509014048 53 62 0.0 0.0 0.00 0.00 0.00 71 1010.4
20260509013545 53 63 0.0 0.0 0.00 0.00 0.00 71 1010.7
20260509013040 53 63 0.0 0.0 0.00 0.00 0.00 70 1010.6
20260509012537 53 187 0.0 0.0 0.00 0.00 0.00 69 1010.3
20260509012034 53 182 0.0 0.0 0.00 0.00 0.00 68 1010.5
20260509011532 53 162 0.0 0.0 0.00 0.00 0.00 67 1010.7
20260509011029 54 163 0.0 0.0 0.00 0.00 0.00 66 1010.3
20260509010527 54 170 0.0 0.0 0.00 0.00 0.00 65 1010.4
20260509010023 54 88 0.0 0.0 0.00 0.00 0.00 65 1010.6
20260509005521 54 94 0.0 0.0 0.00 0.00 0.00 63 1010.6
20260509005021 54 169 0.0 1.0 0.00 0.00 0.00 63 1010.8
20260509004518 54 165 0.0 1.0 0.00 0.00 0.00 62 1010.3
20260509004015 55 150 0.0 0.0 0.00 0.00 0.00 61 1010.5
20260509003514 55 126 2.0 2.0 0.00 0.00 0.00 60 1010.7
20260509003010 55 352 0.0 0.0 0.00 0.00 0.00 60 1010.7
20260509002508 55 156 0.0 0.0 0.00 0.00 0.00 59 1010.7
20260509002005 55 140 2.0 2.0 0.00 0.00 0.00 58 1010.8
20260509001502 55 150 1.0 1.0 0.00 0.00 0.00 57 1010.9
20260509000958 55 153 0.0 0.0 0.00 0.00 0.00 57 1011.0
20260509000457 55 141 1.0 2.0 0.00 0.00 0.00 56 1010.5
20260508235952 55 170 1.0 1.0 0.00 0.00 0.00 56 1010.6
20260508235450 55 149 0.0 1.0 0.00 0.00 0.00 55 1011.0
20260508234946 55 159 1.0 1.0 0.00 0.00 0.00 54 1010.9
20260508234443 56 89 3.0 3.0 0.00 0.00 0.00 53 1010.8
20260508233941 56 154 0.0 0.0 0.00 0.00 0.00 53 1011.0
20260508233440 56 197 1.0 1.0 0.00 0.00 0.00 54 1011.2
20260508232937 57 189 2.0 2.0 0.00 0.00 0.00 53 1010.9
20260508232434 58 171 1.0 2.0 0.00 0.00 0.00 51 1011.1
20260508231931 58 133 2.0 2.0 0.00 0.00 0.00 50 1011.0
20260508231428 58 142 0.0 1.0 0.00 0.00 0.00 50 1011.2
20260508230925 58 179 1.0 1.0 0.00 0.00 0.00 49 1010.9
20260508230421 58 169 0.0 0.0 0.00 0.00 0.00 49 1011.0
20260508225919 59 165 2.0 3.0 0.00 0.00 0.00 48 1011.3
20260508225415 59 100 0.0 1.0 0.00 0.00 0.00 48 1011.3
20260508224913 59 200 0.0 1.0 0.00 0.00 0.00 49 1011.1
20260508224410 59 105 2.0 2.0 0.00 0.00 0.00 47 1011.2
20260508223908 59 72 2.0 2.0 0.00 0.00 0.00 48 1011.3
20260508223405 59 83 1.0 2.0 0.00 0.00 0.00 47 1011.2
20260508222903 59 43 2.0 3.0 0.00 0.00 0.00 45 1011.1
20260508222359 58 153 0.0 0.0 0.00 0.00 0.00 47 1011.3
20260508221856 58 148 1.0 2.0 0.00 0.00 0.00 46 1011.3
20260508221351 58 181 0.0 1.0 0.00 0.00 0.00 48 1011.3
20260508220848 58 190 0.0 1.0 0.00 0.00 0.00 50 1011.3
20260508220345 58 95 1.0 2.0 0.00 0.00 0.00 48 1011.2
20260508215841 58 138 2.0 2.0 0.00 0.00 0.00 47 1011.5
20260508215338 59 184 0.0 1.0 0.00 0.00 0.00 47 1011.4
20260508214835 59 1 0.0 0.0 0.00 0.00 0.00 46 1011.4
20260508214332 60 52 4.0 6.0 0.00 0.00 0.00 44 1011.3
20260508213828 61 140 2.0 2.0 0.00 0.00 0.00 42 1011.3
20260508213325 62 115 1.0 2.0 0.00 0.00 0.00 44 1011.5
20260508212821 60 0 1.0 1.0 0.00 0.00 0.00 46 1011.5
20260508212318 59 91 1.0 1.0 0.00 0.00 0.00 46 1011.5
20260508211814 60 2 1.0 1.0 0.00 0.00 0.00 44 1011.6
20260508211309 60 73 1.0 1.0 0.00 0.00 0.00 45 1011.6
20260508210808 60 77 1.0 1.0 0.00 0.00 0.00 45 1011.9
20260508210304 61 65 3.0 3.0 0.00 0.00 0.00 43 1011.6
20260508205801 62 222 1.0 1.0 0.00 0.00 0.00 41 1011.6
20260508205257 62 172 1.0 2.0 0.00 0.00 0.00 44 1011.6
20260508204753 62 3 3.0 3.0 0.00 0.00 0.00 44 1011.7
20260508204250 64 66 2.0 2.0 0.00 0.00 0.00 43 1011.9
20260508203746 63 152 2.0 3.0 0.00 0.00 0.00 43 1011.8
20260508203243 62 12 3.0 3.0 0.00 0.00 0.00 42 1011.9
20260508202738 63 87 4.0 6.0 0.00 0.00 0.00 42 1011.9
20260508202236 63 4 3.0 3.0 0.00 0.00 0.00 41 1012.1
20260508201733 63 297 0.0 1.0 0.00 0.00 0.00 42 1012.1
20260508201229 63 62 2.0 2.0 0.00 0.00 0.00 43 1012.0
20260508200726 63 102 0.0 1.0 0.00 0.00 0.00 41 1012.6
20260508200222 63 64 2.0 2.0 0.00 0.00 0.00 44 1012.2
20260508195718 62 148 2.0 3.0 0.00 0.00 0.00 46 1012.7
20260508195215 61 82 2.0 2.0 0.00 0.00 0.00 45 1012.7
20260508194712 61 353 3.0 3.0 0.00 0.00 0.00 45 1012.4
20260508194209 62 165 2.0 3.0 0.00 0.00 0.00 42 1012.7
20260508193706 63 29 4.0 5.0 0.00 0.00 0.00 39 1013.1
20260508193202 63 189 1.0 2.0 0.00 0.00 0.00 42 1012.8
20260508192659 63 166 2.0 2.0 0.00 0.00 0.00 42 1012.8
20260508192156 64 19 2.0 2.0 0.00 0.00 0.00 43 1013.1
20260508191653 64 184 3.0 3.0 0.00 0.00 0.00 39 1013.0
20260508191149 63 89 2.0 2.0 0.00 0.00 0.00 41 1012.9
20260508190647 62 7 2.0 2.0 0.00 0.00 0.00 45 1013.0
20260508190143 63 344 4.0 5.0 0.00 0.00 0.00 44 1013.2
20260508185641 63 135 2.0 3.0 0.00 0.00 0.00 39 1013.2
20260508185138 63 154 1.0 2.0 0.00 0.00 0.00 47 1013.4
20260508184635 63 96 3.0 5.0 0.00 0.00 0.00 48 1013.5
20260508184132 62 187 1.0 2.0 0.00 0.00 0.00 49 1013.6
20260508183629 63 181 1.0 1.0 0.00 0.00 0.00 45 1013.4
20260508183125 64 72 3.0 3.0 0.00 0.00 0.00 45 1013.5
20260508182621 63 75 2.0 2.0 0.00 0.00 0.00 43 1013.6
20260508182118 64 17 4.0 5.0 0.00 0.00 0.00 41 1013.7
20260508181613 64 39 3.0 3.0 0.00 0.00 0.00 40 1013.6
20260508181111 63 338 1.0 1.0 0.00 0.00 0.00 43 1013.8
20260508180608 63 133 1.0 2.0 0.00 0.00 0.00 44 1013.7
20260508180104 64 37 3.0 3.0 0.00 0.00 0.00 44 1013.9
20260508175601 62 89 1.0 1.0 0.00 0.00 0.00 48 1013.8
20260508175058 62 90 2.0 2.0 0.00 0.00 0.00 48 1013.9
20260508174555 63 74 3.0 6.0 0.00 0.00 0.00 51 1014.0
20260508174052 62 173 2.0 2.0 0.00 0.00 0.00 52 1014.1
20260508173549 62 86 3.0 5.0 0.00 0.00 0.00 50 1014.5
20260508173045 63 178 2.0 2.0 0.00 0.00 0.00 52 1014.1
20260508172542 62 89 2.0 2.0 0.00 0.00 0.00 51 1014.4
20260508172039 62 337 2.0 2.0 0.00 0.00 0.00 52 1014.4
20260508171535 62 62 2.0 3.0 0.00 0.00 0.00 54 1014.6
20260508171032 62 168 2.0 2.0 0.00 0.00 0.00 55 1014.7
20260508170529 62 20 3.0 3.0 0.00 0.00 0.00 56 1014.9
20260508170026 62 159 1.0 2.0 0.00 0.00 0.00 56 1014.7
20260508165524 60 149 1.0 2.0 0.00 0.00 0.00 56 1014.8
20260508165020 61 251 1.0 1.0 0.00 0.00 0.00 57 1014.8
20260508164517 62 202 2.0 2.0 0.00 0.00 0.00 54 1015.0
20260508164014 61 118 0.0 0.0 0.00 0.00 0.00 56 1015.0
20260508163511 62 46 1.0 1.0 0.00 0.00 0.00 58 1015.1
20260508163007 61 182 1.0 2.0 0.00 0.00 0.00 56 1015.3
20260508162505 61 95 3.0 5.0 0.00 0.00 0.00 57 1015.0
20260508162002 61 25 1.0 1.0 0.00 0.00 0.00 59 1015.3
20260508161458 61 31 2.0 2.0 0.00 0.00 0.00 61 1015.4
20260508160955 61 162 1.0 1.0 0.00 0.00 0.00 59 1015.2
20260508160454 61 136 1.0 2.0 0.00 0.00 0.00 59 1015.4
20260508155950 61 187 1.0 3.0 0.00 0.00 0.00 59 1015.5
20260508155448 61 159 1.0 1.0 0.00 0.00 0.00 59 1015.2
20260508154944 61 78 1.0 1.0 0.00 0.00 0.00 59 1015.5
20260508154442 60 155 0.0 1.0 0.00 0.00 0.00 58 1015.6
20260508153938 61 133 2.0 2.0 0.00 0.00 0.00 61 1015.3
20260508153435 62 148 2.0 2.0 0.00 0.00 0.00 59 1015.6
20260508152931 60 125 1.0 1.0 0.00 0.00 0.00 62 1015.6
20260508152428 61 201 0.0 1.0 0.00 0.00 0.00 63 1015.7
20260508151924 60 70 3.0 3.0 0.00 0.00 0.00 63 1015.6
20260508151422 60 70 0.0 0.0 0.00 0.00 0.00 61 1015.7
20260508150918 60 71 1.0 1.0 0.00 0.00 0.00 63 1015.7
20260508150415 59 70 1.0 2.0 0.00 0.00 0.00 65 1015.6
20260508145911 59 94 0.0 1.0 0.00 0.00 0.00 66 1015.8
20260508145407 59 200 0.0 1.0 0.00 0.00 0.00 67 1015.8
20260508144904 58 158 1.0 1.0 0.00 0.00 0.00 68 1015.8
20260508144402 57 146 0.0 1.0 0.00 0.00 0.00 69 1015.8
20260508143859 56 212 2.0 2.0 0.00 0.00 0.00 72 1015.7
20260508143356 56 215 2.0 2.0 0.00 0.00 0.00 71 1015.5
20260508142853 55 175 0.0 1.0 0.00 0.00 0.00 73 1015.8
20260508142350 54 158 2.0 2.0 0.00 0.00 0.00 74 1015.8
20260508141846 53 197 0.0 0.0 0.00 0.00 0.00 73 1015.8
20260508141343 54 187 4.0 6.0 0.00 0.00 0.00 70 1015.7
20260508140841 54 103 0.0 1.0 0.00 0.00 0.00 72 1015.8
20260508140338 55 94 1.0 1.0 0.00 0.00 0.00 71 1015.6
20260508135833 55 71 0.0 1.0 0.00 0.00 0.00 72 1015.7
20260508135330 53 68 2.0 2.0 0.00 0.00 0.00 77 1015.7
20260508134826 52 68 0.0 0.0 0.00 0.00 0.00 86 1015.6
20260508134323 50 68 1.0 1.0 0.00 0.00 0.00 93 1015.8
20260508133819 49 68 0.0 0.0 0.00 0.00 0.00 96 1015.9
20260508133318 49 171 0.0 0.0 0.00 0.00 0.00 97 1015.7
20260508132814 48 137 0.0 0.0 0.00 0.00 0.00 98 1015.8
20260508132312 48 194 0.0 0.0 0.00 0.00 0.00 98 1016.1
20260508131808 48 104 0.0 0.0 0.00 0.00 0.00 98 1015.8
20260508131304 48 108 0.0 0.0 0.00 0.00 0.00 98 1016.0
20260508130800 48 122 0.0 0.0 0.00 0.00 0.00 98 1016.0
20260508130258 47 108 0.0 0.0 0.00 0.00 0.00 98 1016.0
20260508125754 46 152 0.0 0.0 0.00 0.00 0.00 98 1016.1
20260508125250 45 133 0.0 0.0 0.00 0.00 0.00 98 1016.0
20260508124749 45 183 0.0 0.0 0.00 0.00 0.00 98 1016.2
20260508124246 45 184 0.0 0.0 0.00 0.00 0.00 98 1016.1